Starlink 5348

operational
NORAD ID: 56515 Int'l Des: 2023-065 Owner: SPXS Country: US Constellation: starlink
LEOCIRCULAR

About Starlink 5348

Description loading...

Live Position

Loading 3D Globe...

Upcoming Passes

Altitude History

Altitude vs Time

uPlot chart will show altitude changes over time

Two-Line Element Set

1 56515U 23065N 25352.18388255 -.00001369 00000-0 -86270-4 0 9993
2 56515 43.0040 293.2621 0000854 263.7974 96.2771 15.02534096144360
Epoch: Dec 18, 2025 • Age: 27 hours

Current Status

Altitude 560.6 km
Velocity 7.59 km/s
Sub-Earth Point 32.58°N, 125.37°E
Launch Date May 14, 2023
Age 2.6 years
Type internet

Technical Details

Classification Payload
Mass 305.00 kg
Dry Mass 290.00 kg
Total Mass 305.00 kg
Length 0.20 m
Diameter 2.80 m
Span 9.00 m
Shape Box + pan
Manufacturer SPXS
Bus Type Starlink
Phase Status In Orbit
Owner/State SPXS/US

Large Constellations

Loading constellations...